SCP
0 0 0 0 0 0 0 0 0 0 0 0 0 0 0 0 0 0 0 0 0 0 0 0 0 0 0 0 0 0 0 0 0 1 1 1 1 1 0 0 0 0 0 0
0 0 0 0 0 0 0 0 0 0 0 0 0 0 0 0 0 0 0 0 0 0 0 0 0 0 0 0 0 0 0 0 0 1 1 1 1 1 1 0 0 0 0 0
0 0 0 0 0 0 0 0 0 0 0 0 0 0 0 0 0 0 0 0 0 0 0 0 0 0 0 0 0 0 0 0 0 0 1 1 1 1 1 1 1 0 0 0
0 0 0 0 0 0 0 0 0 0 0 0 0 0 0 0 0 0 0 0 0 0 0 0 0 0 0 0 0 0 0 0 0 0 0 1 1 1 1 1 1 0 0 0
0 0 0 0 0 0 0 0 0 0 0 0 0 0 0 0 0 0 0 0 0 0 0 0 0 0 0 0 0 0 0 0 0 0 0 1 1 1 1 1 1 1 0 0
0 0 0 0 0 0 0 0 0 0 0 0 0 0 0 0 0 0 0 0 0 0 0 0 0 0 0 0 0 0 0 0 0 0 0 0 0 1 1 1 1 0 0 0
0 0 0 0 0 0 0 0 0 0 0 0 0 0 0 0 0 0 0 0 0 0 0 0 0 0 0 0 0 0 0 0 0 0 0 0 0 0 0 0 0 0 0 0
0 0 0 0 0 0 0 0 0 0 0 0 0 0 0 0 0 0 0 0 0 0 0 0 0 0 0 0 0 0 0 0 0 0 0 0 0 0 0 0 0 0 0 0
0 0 0 0 0 0 0 0 0 0 0 0 0 0 0 0 0 0 0 0 0 0 0 0 0 0 0 0 0 0 0 0 0 0 0 0 0 0 0 0 0 0 0 0
0 0 0 0 0 0 0 0 0 0 0 0 0 0 0 0 0 0 0 0 0 0 0 0 0 0 0 0 0 0 0 0 0 0 0 0 0 0 0 0 0 0 0 0
0 0 0 0 0 0 0 0 0 0 0 0 0 0 0 0 0 0 0 0 0 0 0 0 0 0 0 0 0 0 0 0 0 0 0 0 0 0 0 0 0 0 0 0
0 0 0 0 0 0 0 0 0 0 0 0 0 0 0 0 0 0 0 0 0 0 0 0 0 0 0 0 0 0 0 0 0 0 0 0 0 0 0 0 0 0 0 0
0 0 0 0 0 0 0 0 0 0 0 0 0 0 0 0 0 0 0 0 0 0 0 0 0 0 0 0 0 0 0 0 0 0 0 0 0 0 0 0 0 0 0 0
0 0 0 0 0 0 0 0 0 0 0 0 0 0 0 0 0 0 0 0 0 0 0 0 0 0 0 0 0 0 0 0 0 0 0 0 0 0 0 0 0 0 0 0
0 0 0 0 0 0 0 0 0 0 0 0 0 0 0 0 0 0 0 0 0 0 0 0 0 0 0 0 0 0 0 0 0 0 0 0 0 0 0 0 0 0 0 0
0 0 0 0 0 0 0 0 0 0 0 0 0 0 0 0 0 0 0 0 0 0 0 0 0 0 -0 -0 0 0 0 0 0 0 0 0 0 0 0 0 0 0 0 0
0 0 0 0 0 0 0 0 0 0 0 0 0 0 0 0 0 0 0 0 0 0 0 0 0 0 0 -0 0 0 0 0 0 0 0 0 0 0 0 0 0 0 0 0
0 0 0 0 0 0 0 0 0 0 0 0 0 0 0 0 0 0 0 0 0 0 0 0 0 0 0 0 0 0 0 0 -0 0 0 0 0 0 0 0 0 0 0 0
0 0 0 0 0 0 0 0 0 0 0 0 0 0 0 0 0 0 0 0 0 0 0 0 0 0 0 0 0 0 0 0 0 0 0 0 0 0 0 0 0 0 0 0
0 0 0 0 0 0 0 0 0 0 0 0 0 0 0 0 0 0 0 0 0 0 0 0 0 0 0 0 0 0 0 0 0 0 0 0 0 0 0 0 0 0 0 0
0 0 0 0 0 0 0 0 0 0 0 0 0 0 0 0 0 0 0 0 0 0 0 0 0 0 0 0 0 0 0 0 0 0 0 0 0 0 0 0 0 0 0 0
0 0 0 0 0 0 0 0 0 0 0 0 0 0 0 0 0 0 0 0 0 0 0 0 0 0 0 0 0 0 0 0 0 0 0 0 0 0 0 0 0 0 0 0
0 0 0 0 0 0 0 0 0 0 0 0 0 0 0 0 0 0 0 0 0 0 0 0 0 0 0 0 0 0 0 0 0 0 0 0 0 0 0 0 0 0 0 0
0 0 0 0 0 0 0 0 0 0 0 0 0 0 0 0 0 0 0 0 0 0 0 0 0 0 0 0 0 0 0 0 0 0 0 0 0 0 0 0 0 0 0 0
0 0 0 0 0 0 0 0 0 0 0 0 0 0 0 0 0 0 0 0 0 0 0 0 0 0 0 0 0 0 0 0 0 0 0 0 0 0 0 0 0 0 0 0
0 0 0 0 0 0 0 0 0 0 0 0 0 0 0 0 0 0 0 0 0 0 0 0 0 0 0 0 0 0 0 0 0 0 0 0 0 0 0 0 0 0 0 0
Wind_Speed
4 7 5 5 5 4 4 5 4 2 4 7 10 11 12 14 17 17 14 13 13 12 12 12 12 11 10 10 10 10 9 7 3 1 2 3 4 4 4 4 6 6 5 6
7 6 4 6 8 8 7 6 4 4 4 5 8 10 10 15 16 14 14 14 14 14 14 14 14 13 11 9 9 9 9 8 5 2 2 3 3 2 3 3 4 5 5 5
8 3 6 11 11 8 4 3 2 3 5 4 6 6 11 9 13 15 16 13 14 14 15 14 14 12 11 10 9 8 8 8 7 5 2 1 1 1 1 2 2 3 4 5
7 5 8 10 7 6 4 4 4 3 2 3 2 2 7 10 13 18 17 16 15 15 14 13 13 13 13 11 9 9 8 8 6 5 2 2 3 4 5 3 3 3 3 5
4 4 8 7 5 5 5 7 5 3 2 2 5 4 5 8 13 18 17 16 15 15 14 13 12 12 11 10 9 8 8 8 7 5 3 2 2 3 3 4 6 4 3 4
5 3 5 3 3 5 5 6 6 6 6 5 5 4 6 8 12 16 16 15 15 15 13 12 11 11 10 9 8 8 8 8 7 6 4 2 1 3 5 5 6 4 3 3
6 7 5 5 6 8 9 7 7 9 7 2 3 6 3 6 9 11 14 15 15 13 12 11 12 11 10 9 9 7 7 7 7 6 5 3 2 3 4 5 5 5 3 2
4 5 6 6 3 3 4 5 5 2 1 1 4 4 1 4 8 10 11 12 13 12 11 10 11 9 9 9 8 7 7 7 7 6 6 5 3 2 2 3 3 3 2 2
5 3 2 5 6 4 4 4 1 5 2 3 3 2 3 7 12 13 14 14 14 13 12 11 10 10 9 8 7 6 6 6 7 6 5 5 5 4 4 4 3 2 2 2
5 4 2 3 7 8 4 2 5 5 3 2 2 3 6 12 15 15 14 14 13 13 12 12 10 10 8 7 7 7 7 6 6 6 6 5 5 4 3 3 3 2 1 1
4 6 4 6 6 6 7 6 5 4 4 3 1 3 4 8 10 11 11 11 11 12 12 11 10 9 8 8 8 8 8 7 7 7 6 6 5 5 5 4 3 2 2 1
3 7 4 2 1 2 4 3 3 4 2 3 2 3 5 6 8 8 9 9 9 9 9 10 10 9 9 9 8 8 8 8 7 7 7 7 6 6 6 5 4 3 3 2
4 7 4 3 6 6 4 4 3 5 4 3 2 4 4 5 7 7 7 8 8 7 7 7 8 8 8 8 8 8 8 8 8 7 7 8 8 8 7 7 6 6 5 4
6 5 5 5 4 2 2 3 3 5 4 2 1 3 5 6 6 7 8 8 7 7 7 7 6 7 7 7 7 7 8 7 7 7 8 9 9 8 7 7 7 7 6 7
6 5 3 4 4 4 3 3 4 4 4 4 3 3 4 3 4 6 6 7 7 7 7 7 6 6 6 7 7 7 7 7 7 8 8 8 7 7 8 8 7 7 7 8
5 5 3 2 3 4 3 3 3 3 3 3 2 2 3 2 2 4 5 6 6 6 7 7 6 5 6 6 6 6 7 7 6 7 8 7 8 8 8 7 7 7 7 6
3 5 4 2 3 2 1 4 4 2 3 4 3 4 2 1 1 2 3 5 5 5 6 6 5 4 3 4 4 5 5 5 6 7 7 7 7 7 7 7 7 7 6 6
5 4 4 2 2 2 6 3 5 4 2 3 3 3 4 4 2 2 2 2 4 5 5 5 5 4 3 3 3 4 5 5 6 6 6 6 6 6 6 6 7 6 5 5
4 5 4 3 2 2 3 3 5 4 2 3 4 2 3 3 2 4 3 1 2 3 3 3 3 2 2 2 2 4 4 5 5 5 5 5 5 6 6 6 6 5 5 5
4 5 5 3 2 5 7 5 4 4 2 3 5 4 4 4 2 4 4 2 2 3 3 3 3 2 2 1 2 4 3 4 4 3 3 4 4 5 5 5 5 4 4 5
1 2 2 2 3 5 4 5 6 4 7 5 6 6 5 4 5 5 3 2 2 2 3 3 3 2 2 1 1 2 2 2 1 2 3 4 4 5 5 5 5 5 5 6
7 4 4 4 3 7 5 7 8 8 4 6 6 5 5 3 2 1 1 2 3 3 4 3 3 3 3 2 0 1 1 1 1 3 4 4 5 5 5 6 6 6 6 6
7 8 7 8 8 5 7 7 6 6 7 6 6 5 5 3 2 1 1 2 3 4 4 3 2 3 4 3 1 1 2 1 2 3 3 4 5 5 5 6 6 5 5 5
3 4 4 2 4 3 4 3 5 6 7 7 6 6 5 4 2 1 0 2 3 4 4 3 3 4 4 4 3 2 1 2 4 4 3 3 4 4 5 5 5 5 5 5
6 5 4 3 3 2 4 5 7 6 7 7 6 6 6 5 3 2 0 2 2 3 3 3 4 4 4 3 3 2 1 4 4 4 3 3 3 3 4 4 4 4 4 3
6 8 8 8 9 9 9 8 9 9 9 8 8 6 5 5 4 2 1 1 2 2 3 4 5 4 4 2 2 2 2 4 5 3 3 2 2 2 2 3 3 6 5 6
Wind_Direction
46 58 53 50 67 93 79 72 39 28 17 63 78 65 42 34 38 32 25 19 14 11 6 7 9 8 12 11 9 2 352 343 339 276 215 201 201 188 184 187 179 175 166 166
51 42 61 69 49 55 57 57 15 335 9 71 92 71 48 43 37 30 22 12 5 1 1 1 2 3 3 2 2 356 347 337 329 302 250 215 192 181 182 181 171 169 158 152
93 41 53 57 38 29 31 62 340 310 353 34 106 59 24 21 25 22 18 10 3 359 353 352 353 351 351 353 353 350 338 333 328 321 307 264 124 101 147 165 163 163 152 146
65 16 47 52 30 15 319 309 306 299 12 311 49 79 14 351 5 8 4 1 355 350 346 344 346 344 343 342 344 344 340 335 329 321 293 225 197 193 189 173 153 141 133 132
73 42 49 40 1 359 295 295 291 274 172 50 16 94 360 352 1 353 350 351 348 344 341 339 339 337 335 337 342 342 341 343 338 332 310 255 219 202 164 148 141 139 134 124
61 45 54 7 343 354 334 355 20 44 71 56 349 81 26 2 343 336 340 344 339 338 337 336 335 338 337 341 344 345 345 346 347 351 350 352 148 158 151 152 153 152 143 127
36 15 10 8 6 359 23 44 30 21 29 44 38 71 43 339 340 333 334 335 334 335 334 338 337 336 339 345 348 350 355 352 354 3 10 20 62 125 146 149 151 152 150 147
83 13 10 11 15 350 18 81 109 119 257 326 35 61 267 328 331 335 338 338 339 341 341 343 340 337 341 348 348 353 359 0 4 12 16 21 39 75 92 108 125 141 147 144
121 110 82 45 25 51 28 20 143 139 63 64 44 18 316 338 346 348 349 350 350 348 348 347 345 351 351 351 353 355 3 8 10 15 23 28 39 64 78 86 90 97 113 135
125 118 31 11 21 21 59 52 51 66 77 53 14 5 330 330 336 341 347 348 345 346 349 351 354 356 356 358 4 10 17 18 17 21 28 40 42 57 69 74 75 72 57 69
83 106 11 26 31 3 13 25 55 77 98 117 24 321 302 305 316 325 332 339 339 345 347 352 355 356 1 11 18 18 19 21 23 25 30 37 39 44 52 60 61 66 63 66
63 100 69 36 351 57 60 39 88 108 64 82 117 281 287 296 304 311 321 330 334 338 347 352 355 359 8 15 18 18 19 24 24 26 34 36 34 39 43 42 40 44 46 39
85 100 91 357 340 359 32 18 68 107 97 79 90 294 302 311 317 321 321 324 329 337 347 352 359 3 7 10 13 17 20 21 19 22 31 36 34 35 37 36 36 38 40 38
98 84 135 164 206 203 65 37 58 92 104 118 197 272 306 318 323 328 332 331 333 342 351 355 0 2 5 8 12 16 18 17 21 25 32 37 35 34 36 37 37 39 46 50
88 92 117 153 161 130 121 103 80 94 144 150 206 243 277 294 309 320 329 337 351 356 358 359 2 2 6 13 17 20 21 21 25 31 35 33 29 31 36 39 36 37 42 49
89 121 125 148 163 132 112 134 116 110 128 143 178 258 247 251 310 334 339 351 359 358 356 355 2 14 15 17 20 22 23 20 27 35 34 32 34 34 34 34 37 40 40 40
91 122 121 199 184 109 257 202 173 159 169 166 189 227 217 199 313 321 335 352 353 353 356 0 2 10 12 16 27 26 20 27 34 35 33 32 35 36 32 35 38 36 33 36
116 113 124 125 122 237 252 216 160 156 190 191 197 209 197 199 230 275 276 349 349 350 351 352 356 5 11 29 38 36 35 38 38 33 30 28 33 34 29 32 33 28 27 33
116 125 109 116 157 269 277 203 170 161 220 202 173 181 176 161 41 341 305 303 318 328 335 338 352 17 31 39 48 54 39 35 38 32 28 26 32 34 30 28 24 21 31 34
66 88 105 121 160 235 241 206 159 116 243 224 155 139 142 121 73 282 287 312 337 337 341 349 353 20 32 12 60 63 40 34 30 27 28 31 39 41 35 28 24 23 32 34
26 46 116 164 219 260 246 148 117 159 228 190 151 148 144 164 199 237 272 320 335 336 334 351 6 356 324 293 89 67 34 13 3 40 42 38 37 43 39 36 31 31 37 38
172 169 197 164 202 254 194 142 176 210 175 146 146 154 153 173 193 202 24 349 344 340 336 347 356 342 323 310 101 63 311 286 55 63 54 47 38 42 45 45 38 32 36 40
182 185 182 184 210 235 179 186 196 155 148 153 152 156 147 144 134 111 22 356 341 340 338 339 344 340 332 326 288 253 268 210 106 86 75 63 57 47 43 49 43 36 34 40
252 150 130 192 258 204 188 168 152 154 152 158 152 145 139 141 134 108 22 339 339 337 337 341 351 346 328 320 323 288 272 137 118 110 104 88 78 62 49 47 45 46 37 36
216 162 148 206 229 188 225 189 163 152 144 146 146 146 148 144 140 143 198 315 328 332 328 337 341 330 318 315 327 344 58 118 112 112 116 109 95 91 72 59 46 45 37 37
197 172 172 209 200 180 206 198 167 154 160 160 155 157 160 158 163 157 206 285 312 328 331 337 336 330 324 333 334 352 63 124 124 121 132 142 131 119 109 95 60 34 38 42